Year,Month,Day,Hour,Minute,Value (Times are PST for temperature in C)
2014,07,25,00,00,15.60
2014,07,25,00,01,15.60
2014,07,25,00,02,15.60
2014,07,25,00,03,15.60
2014,07,25,00,04,15.60
2014,07,25,00,05,15.60
2014,07,25,00,06,15.60
2014,07,25,00,07,15.60
2014,07,25,00,08,15.60
2014,07,25,00,09,15.60
2014,07,25,00,10,15.60
2014,07,25,00,11,15.50
2014,07,25,00,12,15.60
2014,07,25,00,13,15.60
2014,07,25,00,14,15.60
2014,07,25,00,15,15.60
2014,07,25,00,16,15.60
2014,07,25,00,17,15.60
2014,07,25,00,18,15.60
2014,07,25,00,19,15.60
2014,07,25,00,20,15.60
2014,07,25,00,21,15.60
2014,07,25,00,22,15.60
2014,07,25,00,23,15.60
2014,07,25,00,24,15.60
2014,07,25,00,25,15.60
2014,07,25,00,26,15.60
2014,07,25,00,27,15.60
2014,07,25,00,28,15.70
2014,07,25,00,29,15.60
2014,07,25,00,30,15.70
2014,07,25,00,31,15.70
2014,07,25,00,32,15.70
2014,07,25,00,33,15.70
2014,07,25,00,34,15.70
2014,07,25,00,35,15.70
2014,07,25,00,36,15.70
2014,07,25,00,37,15.70
2014,07,25,00,38,15.70
2014,07,25,00,39,15.70
2014,07,25,00,40,15.70
2014,07,25,00,41,15.60
2014,07,25,00,42,15.60
2014,07,25,00,43,15.60
2014,07,25,00,44,15.60
2014,07,25,00,45,15.60
2014,07,25,00,46,15.60
2014,07,25,00,47,15.60
2014,07,25,00,48,15.60
2014,07,25,00,49,15.60
2014,07,25,00,50,15.60
2014,07,25,00,51,15.60
2014,07,25,00,52,15.60
2014,07,25,00,53,15.60
2014,07,25,00,54,15.60
2014,07,25,00,55,15.60
2014,07,25,00,56,15.60
2014,07,25,00,57,15.60
2014,07,25,00,58,15.60
2014,07,25,00,59,15.60
2014,07,25,01,00,15.60
2014,07,25,01,01,15.60
2014,07,25,01,02,15.60
2014,07,25,01,03,15.60
2014,07,25,01,04,15.60
2014,07,25,01,05,15.60
2014,07,25,01,06,15.60
2014,07,25,01,07,15.60
2014,07,25,01,08,15.60
2014,07,25,01,09,15.60
2014,07,25,01,10,15.60
2014,07,25,01,11,15.60
2014,07,25,01,12,15.60
2014,07,25,01,13,15.60
2014,07,25,01,14,15.60
2014,07,25,01,15,15.60
2014,07,25,01,16,15.60
2014,07,25,01,17,15.60
2014,07,25,01,18,15.60
2014,07,25,01,19,15.60
2014,07,25,01,20,15.60
2014,07,25,01,21,15.60
2014,07,25,01,22,15.60
2014,07,25,01,23,15.60
2014,07,25,01,24,15.60
2014,07,25,01,25,15.60
2014,07,25,01,26,15.60
2014,07,25,01,27,15.60
2014,07,25,01,28,15.70
2014,07,25,01,29,15.60
2014,07,25,01,30,15.60
2014,07,25,01,31,15.60
2014,07,25,01,32,15.60
2014,07,25,01,33,15.60
2014,07,25,01,34,15.60
2014,07,25,01,35,15.60
2014,07,25,01,36,15.60
2014,07,25,01,37,15.60
2014,07,25,01,38,15.60
2014,07,25,01,39,15.60
2014,07,25,01,40,15.60
2014,07,25,01,41,15.60
2014,07,25,01,42,15.60
2014,07,25,01,43,15.60
2014,07,25,01,44,15.60
2014,07,25,01,45,15.50
2014,07,25,01,46,15.50
2014,07,25,01,47,15.50
2014,07,25,01,48,15.50
2014,07,25,01,49,15.50
2014,07,25,01,50,15.40
2014,07,25,01,51,15.40
2014,07,25,01,52,15.40
2014,07,25,01,53,15.40
2014,07,25,01,54,15.40
2014,07,25,01,55,15.40
2014,07,25,01,56,15.40
2014,07,25,01,57,15.40
2014,07,25,01,58,15.40
2014,07,25,01,59,15.40
2014,07,25,02,00,15.30
2014,07,25,02,01,15.30
2014,07,25,02,02,15.30
2014,07,25,02,03,15.30
2014,07,25,02,04,15.30
2014,07,25,02,05,15.30
2014,07,25,02,06,15.30
2014,07,25,02,07,15.30
2014,07,25,02,08,15.30
2014,07,25,02,09,15.30
2014,07,25,02,10,15.30
2014,07,25,02,11,15.30
2014,07,25,02,12,15.20
2014,07,25,02,13,15.20
2014,07,25,02,14,15.20
2014,07,25,02,15,15.20
2014,07,25,02,16,15.20
2014,07,25,02,17,15.20
2014,07,25,02,18,15.20
2014,07,25,02,19,15.20
2014,07,25,02,20,15.20
2014,07,25,02,21,15.20
2014,07,25,02,22,15.20
2014,07,25,02,23,15.20
2014,07,25,02,24,15.20
2014,07,25,02,25,15.10
2014,07,25,02,26,15.10
2014,07,25,02,27,15.10
2014,07,25,02,28,15.10
2014,07,25,02,29,15.00
2014,07,25,02,30,15.00
2014,07,25,02,31,15.00
2014,07,25,02,32,14.90
2014,07,25,02,33,14.90
2014,07,25,02,34,14.90
2014,07,25,02,35,14.90
2014,07,25,02,36,14.90
2014,07,25,02,37,14.90
2014,07,25,02,38,14.80
2014,07,25,02,39,14.80
2014,07,25,02,40,14.80
2014,07,25,02,41,14.80
2014,07,25,02,42,14.70
2014,07,25,02,43,14.70
2014,07,25,02,44,14.70
2014,07,25,02,45,14.70
2014,07,25,02,46,14.70
2014,07,25,02,47,14.60
2014,07,25,02,48,14.60
2014,07,25,02,49,14.60
2014,07,25,02,50,14.60
2014,07,25,02,51,14.60
2014,07,25,02,52,14.60
2014,07,25,02,53,14.60
2014,07,25,02,54,14.60
2014,07,25,02,55,14.60
2014,07,25,02,56,14.70
2014,07,25,02,57,14.60
2014,07,25,02,58,14.60
2014,07,25,02,59,14.60
2014,07,25,03,00,14.70
2014,07,25,03,01,14.70
2014,07,25,03,02,14.70
2014,07,25,03,03,14.60
2014,07,25,03,04,14.60
2014,07,25,03,05,14.60
2014,07,25,03,06,14.50
2014,07,25,03,07,14.50
2014,07,25,03,08,14.40
2014,07,25,03,09,14.40
2014,07,25,03,10,14.40
2014,07,25,03,11,14.40
2014,07,25,03,12,14.40
2014,07,25,03,13,14.40
2014,07,25,03,14,14.40
2014,07,25,03,15,14.40
2014,07,25,03,16,14.40
2014,07,25,03,17,14.40
2014,07,25,03,18,14.30
2014,07,25,03,19,14.30
2014,07,25,03,20,14.30
2014,07,25,03,21,14.30
2014,07,25,03,22,14.20
2014,07,25,03,23,14.20
2014,07,25,03,24,14.20
2014,07,25,03,25,14.20
2014,07,25,03,26,14.20
2014,07,25,03,27,14.20
2014,07,25,03,28,14.20
2014,07,25,03,29,14.20
2014,07,25,03,30,14.20
2014,07,25,03,31,14.20
2014,07,25,03,32,14.20
2014,07,25,03,33,14.10
2014,07,25,03,34,14.10
2014,07,25,03,35,14.00
2014,07,25,03,36,14.00
2014,07,25,03,37,14.00
2014,07,25,03,38,14.00
2014,07,25,03,39,13.90
2014,07,25,03,40,13.90
2014,07,25,03,41,13.90
2014,07,25,03,42,13.90
2014,07,25,03,43,13.90
2014,07,25,03,44,13.90
2014,07,25,03,45,13.90
2014,07,25,03,46,13.90
2014,07,25,03,47,13.90
2014,07,25,03,48,13.90
2014,07,25,03,49,13.90
2014,07,25,03,50,13.90
2014,07,25,03,51,13.90
2014,07,25,03,52,14.00
2014,07,25,03,53,14.00
2014,07,25,03,54,14.00
2014,07,25,03,55,14.00
2014,07,25,03,56,14.00
2014,07,25,03,57,13.90
2014,07,25,03,58,13.90
2014,07,25,03,59,13.90
2014,07,25,04,00,13.90
2014,07,25,04,01,13.80
2014,07,25,04,02,13.80
2014,07,25,04,03,13.80
2014,07,25,04,04,13.80
2014,07,25,04,05,13.70
2014,07,25,04,06,13.70
2014,07,25,04,07,13.70
2014,07,25,04,08,13.70
2014,07,25,04,09,13.70
2014,07,25,04,10,13.70
2014,07,25,04,11,13.70
2014,07,25,04,12,13.70
2014,07,25,04,13,13.70
2014,07,25,04,14,13.80
2014,07,25,04,15,13.80
2014,07,25,04,16,13.80
2014,07,25,04,17,13.80
2014,07,25,04,18,13.80
2014,07,25,04,19,13.80
2014,07,25,04,20,13.80
2014,07,25,04,21,13.80
2014,07,25,04,22,13.80
2014,07,25,04,23,13.80
2014,07,25,04,24,13.80
2014,07,25,04,25,13.80
2014,07,25,04,26,13.80
2014,07,25,04,27,13.70
2014,07,25,04,28,13.70
2014,07,25,04,29,13.70
2014,07,25,04,30,13.70
2014,07,25,04,31,13.60
2014,07,25,04,32,13.60
2014,07,25,04,33,13.60
2014,07,25,04,34,13.50
2014,07,25,04,35,13.50
2014,07,25,04,36,13.40
2014,07,25,04,37,13.50
2014,07,25,04,38,13.40
2014,07,25,04,39,13.40
2014,07,25,04,40,13.50
2014,07,25,04,41,13.50
2014,07,25,04,42,13.50
2014,07,25,04,43,13.60
2014,07,25,04,44,13.60
2014,07,25,04,45,13.50
2014,07,25,04,46,13.50
2014,07,25,04,47,13.50
2014,07,25,04,48,13.50
2014,07,25,04,49,13.50
2014,07,25,04,50,13.60
2014,07,25,04,51,13.60
2014,07,25,04,52,13.60
2014,07,25,04,53,13.60
2014,07,25,04,54,13.60
2014,07,25,04,55,13.50
2014,07,25,04,56,13.50
2014,07,25,04,57,13.50
2014,07,25,04,58,13.50
2014,07,25,04,59,13.50
2014,07,25,05,00,13.50
2014,07,25,05,01,13.50
2014,07,25,05,02,13.50
2014,07,25,05,03,13.50
2014,07,25,05,04,13.40
2014,07,25,05,05,13.40
2014,07,25,05,06,13.40
2014,07,25,05,07,13.40
2014,07,25,05,08,13.40
2014,07,25,05,09,13.40
2014,07,25,05,10,13.40
2014,07,25,05,11,13.40
2014,07,25,05,12,13.40
2014,07,25,05,13,13.30
2014,07,25,05,14,13.30
2014,07,25,05,15,13.30
2014,07,25,05,16,13.40
2014,07,25,05,17,13.40
2014,07,25,05,18,13.40
2014,07,25,05,19,13.40
2014,07,25,05,20,13.40
2014,07,25,05,21,13.30
2014,07,25,05,22,13.30
2014,07,25,05,23,13.30
2014,07,25,05,24,13.30
2014,07,25,05,25,13.30
2014,07,25,05,26,13.30
2014,07,25,05,27,13.30
2014,07,25,05,28,13.20
2014,07,25,05,29,13.20
2014,07,25,05,30,13.20
2014,07,25,05,31,13.20
2014,07,25,05,32,13.20
2014,07,25,05,33,13.20
2014,07,25,05,34,13.20
2014,07,25,05,35,13.20
2014,07,25,05,36,13.20
2014,07,25,05,37,13.20
2014,07,25,05,38,13.20
2014,07,25,05,39,13.20
2014,07,25,05,40,13.20
2014,07,25,05,41,13.20
2014,07,25,05,42,13.20
2014,07,25,05,43,13.20
2014,07,25,05,44,13.20
2014,07,25,05,45,13.20
2014,07,25,05,46,13.20
2014,07,25,05,47,13.20
2014,07,25,05,48,13.20
2014,07,25,05,49,13.20
2014,07,25,05,50,13.20
2014,07,25,05,51,13.20
2014,07,25,05,52,13.10
2014,07,25,05,53,13.10
2014,07,25,05,54,13.10
2014,07,25,05,55,13.10
2014,07,25,05,56,13.10
2014,07,25,05,57,13.10
2014,07,25,05,58,13.10
2014,07,25,05,59,13.10
2014,07,25,06,00,13.10
2014,07,25,06,01,13.10
2014,07,25,06,02,13.10
2014,07,25,06,03,13.00
2014,07,25,06,04,12.90
2014,07,25,06,05,12.90
2014,07,25,06,06,12.90
2014,07,25,06,07,12.90
2014,07,25,06,08,12.80
2014,07,25,06,09,12.80
2014,07,25,06,10,12.80
2014,07,25,06,11,12.80
2014,07,25,06,12,12.80
2014,07,25,06,13,12.80
2014,07,25,06,14,12.70
2014,07,25,06,15,12.70
2014,07,25,06,16,12.70
2014,07,25,06,17,12.70
2014,07,25,06,18,12.70
2014,07,25,06,19,12.70
2014,07,25,06,20,12.80
2014,07,25,06,21,12.80
2014,07,25,06,22,12.80
2014,07,25,06,23,12.70
2014,07,25,06,24,12.70
2014,07,25,06,25,12.70
2014,07,25,06,26,12.70
2014,07,25,06,27,12.70
2014,07,25,06,28,12.70
2014,07,25,06,29,12.80
2014,07,25,06,30,12.80
2014,07,25,06,31,12.80
2014,07,25,06,32,12.80
2014,07,25,06,33,12.80
2014,07,25,06,34,12.90
2014,07,25,06,35,12.90
2014,07,25,06,36,12.90
2014,07,25,06,37,13.00
2014,07,25,06,38,13.00
2014,07,25,06,39,13.10
2014,07,25,06,40,13.10
2014,07,25,06,41,13.10
2014,07,25,06,42,13.20
2014,07,25,06,43,13.20
2014,07,25,06,44,13.20
2014,07,25,06,45,13.20
2014,07,25,06,46,13.20
2014,07,25,06,47,13.30
2014,07,25,06,48,13.30
2014,07,25,06,49,13.30
2014,07,25,06,50,13.30
2014,07,25,06,51,13.30
2014,07,25,06,52,13.30
2014,07,25,06,53,13.30
2014,07,25,06,54,13.30
2014,07,25,06,55,13.30
2014,07,25,06,56,13.30
2014,07,25,06,57,13.30
2014,07,25,06,58,13.30
2014,07,25,06,59,13.30
2014,07,25,07,00,13.30
2014,07,25,07,01,13.30
2014,07,25,07,02,13.30
2014,07,25,07,03,13.30
2014,07,25,07,04,13.30
2014,07,25,07,05,13.30
2014,07,25,07,06,13.20
2014,07,25,07,07,13.30
2014,07,25,07,08,13.30
2014,07,25,07,09,13.30
2014,07,25,07,10,13.30
2014,07,25,07,11,13.30
2014,07,25,07,12,13.30
2014,07,25,07,13,13.30
2014,07,25,07,14,13.30
2014,07,25,07,15,13.30
2014,07,25,07,16,13.30
2014,07,25,07,17,13.30
2014,07,25,07,18,13.40
2014,07,25,07,19,13.40
2014,07,25,07,20,13.50
2014,07,25,07,21,13.50
2014,07,25,07,22,13.60
2014,07,25,07,23,13.60
2014,07,25,07,24,13.60
2014,07,25,07,25,13.70
2014,07,25,07,26,13.70
2014,07,25,07,27,13.80
2014,07,25,07,28,13.80
2014,07,25,07,29,13.90
2014,07,25,07,30,14.00
2014,07,25,07,31,14.00
2014,07,25,07,32,14.00
2014,07,25,07,33,14.10
2014,07,25,07,34,14.10
2014,07,25,07,35,14.20
2014,07,25,07,36,14.20
2014,07,25,07,37,14.30
2014,07,25,07,38,14.30
2014,07,25,07,39,14.40
2014,07,25,07,40,14.50
2014,07,25,07,41,14.50
2014,07,25,07,42,14.60
2014,07,25,07,43,14.60
2014,07,25,07,44,14.60
2014,07,25,07,45,14.70
2014,07,25,07,46,14.70
2014,07,25,07,47,14.80
2014,07,25,07,48,14.80
2014,07,25,07,49,14.80
2014,07,25,07,50,14.90
2014,07,25,07,51,14.90
2014,07,25,07,52,14.90
2014,07,25,07,53,15.00
2014,07,25,07,54,15.00
2014,07,25,07,55,15.10
2014,07,25,07,56,15.10
2014,07,25,07,57,15.10
2014,07,25,07,58,15.20
2014,07,25,07,59,15.20
2014,07,25,08,00,15.20
2014,07,25,08,01,15.30
2014,07,25,08,02,15.30
2014,07,25,08,03,15.30
2014,07,25,08,04,15.30
2014,07,25,08,05,15.40
2014,07,25,08,06,15.40
2014,07,25,08,07,15.40
2014,07,25,08,08,15.40
2014,07,25,08,09,15.50
2014,07,25,08,10,15.50
2014,07,25,08,11,15.50
2014,07,25,08,12,15.60
2014,07,25,08,13,15.60
2014,07,25,08,14,15.60
2014,07,25,08,15,15.70
2014,07,25,08,16,15.70
2014,07,25,08,17,15.80
2014,07,25,08,18,15.90
2014,07,25,08,19,15.90
2014,07,25,08,20,16.00
2014,07,25,08,21,16.10
2014,07,25,08,22,16.10
2014,07,25,08,23,16.10
2014,07,25,08,24,16.10
2014,07,25,08,25,16.10
2014,07,25,08,26,16.10
2014,07,25,08,27,16.10
2014,07,25,08,28,16.10
2014,07,25,08,29,16.20
2014,07,25,08,30,16.20
2014,07,25,08,31,16.20
2014,07,25,08,32,16.20
2014,07,25,08,33,16.20
2014,07,25,08,34,16.20
2014,07,25,08,35,16.20
2014,07,25,08,36,16.20
2014,07,25,08,37,16.20
2014,07,25,08,38,16.20
2014,07,25,08,39,16.20
2014,07,25,08,40,16.10
2014,07,25,08,41,16.10
2014,07,25,08,42,16.10
2014,07,25,08,43,16.20
2014,07,25,08,44,16.20
2014,07,25,08,45,16.20
2014,07,25,08,46,16.20
2014,07,25,08,47,16.20
2014,07,25,08,48,16.20
2014,07,25,08,49,16.20
2014,07,25,08,50,16.20
2014,07,25,08,51,16.20
2014,07,25,08,52,16.20
2014,07,25,08,53,16.30
2014,07,25,08,54,16.30
2014,07,25,08,55,16.30
2014,07,25,08,56,16.30
2014,07,25,08,57,16.30
2014,07,25,08,58,16.40
2014,07,25,08,59,16.40
2014,07,25,09,00,16.40
2014,07,25,09,01,16.50
2014,07,25,09,02,16.50
2014,07,25,09,03,16.60
2014,07,25,09,04,16.60
2014,07,25,09,05,16.60
2014,07,25,09,06,16.60
2014,07,25,09,07,16.70
2014,07,25,09,08,16.70
2014,07,25,09,09,16.80
2014,07,25,09,10,16.80
2014,07,25,09,11,16.80
2014,07,25,09,12,16.80
2014,07,25,09,13,16.80
2014,07,25,09,14,16.80
2014,07,25,09,15,16.80
2014,07,25,09,16,16.80
2014,07,25,09,17,16.80
2014,07,25,09,18,16.70
2014,07,25,09,19,16.70
2014,07,25,09,20,16.70
2014,07,25,09,21,16.60
2014,07,25,09,22,16.60
2014,07,25,09,23,16.50
2014,07,25,09,24,16.50
2014,07,25,09,25,16.40
2014,07,25,09,26,16.30
2014,07,25,09,27,16.30
2014,07,25,09,28,16.30
2014,07,25,09,29,16.20
2014,07,25,09,30,16.20
2014,07,25,09,31,16.20
2014,07,25,09,32,16.20
2014,07,25,09,33,16.20
2014,07,25,09,34,16.20
2014,07,25,09,35,16.20
2014,07,25,09,36,16.30
2014,07,25,09,37,16.30
2014,07,25,09,38,16.30
2014,07,25,09,39,16.30
2014,07,25,09,40,16.30
2014,07,25,09,41,16.30
2014,07,25,09,42,16.30
2014,07,25,09,43,16.30
2014,07,25,09,44,16.30
2014,07,25,09,45,16.30
2014,07,25,09,46,16.30
2014,07,25,09,47,16.40
2014,07,25,09,48,16.40
2014,07,25,09,49,16.40
2014,07,25,09,50,16.40
2014,07,25,09,51,16.40
2014,07,25,09,52,16.40
2014,07,25,09,53,16.40
2014,07,25,09,54,16.30
2014,07,25,09,55,16.30
2014,07,25,09,56,16.40
2014,07,25,09,57,16.40
2014,07,25,09,58,16.40
2014,07,25,09,59,16.50
2014,07,25,10,00,16.60
2014,07,25,10,01,16.60
2014,07,25,10,02,16.60
2014,07,25,10,03,16.60
2014,07,25,10,04,16.60
2014,07,25,10,05,16.70
2014,07,25,10,06,16.70
2014,07,25,10,07,16.70
2014,07,25,10,08,16.80
2014,07,25,10,09,16.80
2014,07,25,10,10,16.80
2014,07,25,10,11,16.80
2014,07,25,10,12,16.80
2014,07,25,10,13,16.80
2014,07,25,10,14,16.80
2014,07,25,10,15,16.80
2014,07,25,10,16,16.80
2014,07,25,10,17,16.90
2014,07,25,10,18,17.00
2014,07,25,10,19,17.00
2014,07,25,10,20,17.10
2014,07,25,10,21,17.10
2014,07,25,10,22,17.20
2014,07,25,10,23,17.20
2014,07,25,10,24,17.30
2014,07,25,10,25,17.30
2014,07,25,10,26,17.30
2014,07,25,10,27,17.40
2014,07,25,10,28,17.50
2014,07,25,10,29,17.50
2014,07,25,10,30,17.60
2014,07,25,10,31,17.70
2014,07,25,10,32,17.70
2014,07,25,10,33,17.80
2014,07,25,10,34,17.80
2014,07,25,10,35,17.80
2014,07,25,10,36,17.80
2014,07,25,10,37,17.70
2014,07,25,10,38,17.60
2014,07,25,10,39,17.60
2014,07,25,10,40,17.50
2014,07,25,10,41,17.50
2014,07,25,10,42,17.50
2014,07,25,10,43,17.40
2014,07,25,10,44,17.40
2014,07,25,10,45,17.40
2014,07,25,10,46,17.30
2014,07,25,10,47,17.30
2014,07,25,10,48,17.30
2014,07,25,10,49,17.20
2014,07,25,10,50,17.20
2014,07,25,10,51,17.20
2014,07,25,10,52,17.20
2014,07,25,10,53,17.20
2014,07,25,10,54,17.20
2014,07,25,10,55,17.20
2014,07,25,10,56,17.10
2014,07,25,10,57,17.10
2014,07,25,10,58,17.10
2014,07,25,10,59,17.10
2014,07,25,11,00,17.10
2014,07,25,11,01,17.10
2014,07,25,11,02,17.10
2014,07,25,11,03,17.00
2014,07,25,11,04,17.00
2014,07,25,11,05,17.00
2014,07,25,11,06,17.10
2014,07,25,11,07,17.20
2014,07,25,11,08,17.30
2014,07,25,11,09,17.30
2014,07,25,11,10,17.20
2014,07,25,11,11,17.20
2014,07,25,11,12,17.10
2014,07,25,11,13,17.10
2014,07,25,11,14,17.10
2014,07,25,11,15,17.10
2014,07,25,11,16,17.20
2014,07,25,11,17,17.20
2014,07,25,11,18,17.10
2014,07,25,11,19,17.10
2014,07,25,11,20,17.00
2014,07,25,11,21,16.90
2014,07,25,11,22,17.00
2014,07,25,11,23,17.10
2014,07,25,11,24,17.20
2014,07,25,11,25,17.20
2014,07,25,11,26,17.20
2014,07,25,11,27,17.20
2014,07,25,11,28,17.20
2014,07,25,11,29,17.20
2014,07,25,11,30,17.30
2014,07,25,11,31,17.30
2014,07,25,11,32,17.20
2014,07,25,11,33,17.20
2014,07,25,11,34,17.20
2014,07,25,11,35,17.30
2014,07,25,11,36,17.30
2014,07,25,11,37,17.30
2014,07,25,11,38,17.30
2014,07,25,11,39,17.20
2014,07,25,11,40,17.20
2014,07,25,11,41,17.10
2014,07,25,11,42,17.10
2014,07,25,11,43,17.10
2014,07,25,11,44,17.10
2014,07,25,11,45,17.10
2014,07,25,11,46,17.10
2014,07,25,11,47,17.20
2014,07,25,11,48,17.20
2014,07,25,11,49,17.20
2014,07,25,11,50,17.30
2014,07,25,11,51,17.30
2014,07,25,11,52,17.30
2014,07,25,11,53,17.30
2014,07,25,11,54,17.30
2014,07,25,11,55,17.30
2014,07,25,11,56,17.30
2014,07,25,11,57,17.30
2014,07,25,11,58,17.30
2014,07,25,11,59,17.30
2014,07,25,12,00,17.30
2014,07,25,12,01,17.30
2014,07,25,12,02,17.30
2014,07,25,12,03,17.30
2014,07,25,12,04,17.20
2014,07,25,12,05,17.30
2014,07,25,12,06,17.20
2014,07,25,12,07,17.20
2014,07,25,12,08,17.20
2014,07,25,12,09,17.20
2014,07,25,12,10,17.20
2014,07,25,12,11,17.20
2014,07,25,12,12,17.20
2014,07,25,12,13,17.30
2014,07,25,12,14,17.40
2014,07,25,12,15,17.40
2014,07,25,12,16,17.50
2014,07,25,12,17,17.50
2014,07,25,12,18,17.50
2014,07,25,12,19,17.50
2014,07,25,12,20,17.60
2014,07,25,12,21,17.60
2014,07,25,12,22,17.60
2014,07,25,12,23,17.60
2014,07,25,12,24,17.60
2014,07,25,12,25,17.70
2014,07,25,12,26,17.60
2014,07,25,12,27,17.60
2014,07,25,12,28,17.70
2014,07,25,12,29,17.70
2014,07,25,12,30,17.70
2014,07,25,12,31,17.70
2014,07,25,12,32,17.80
2014,07,25,12,33,17.80
2014,07,25,12,34,17.80
2014,07,25,12,35,17.70
2014,07,25,12,36,17.70
2014,07,25,12,37,17.70
2014,07,25,12,38,17.70
2014,07,25,12,39,17.60
2014,07,25,12,40,17.50
2014,07,25,12,41,17.50
2014,07,25,12,42,17.40
2014,07,25,12,43,17.40
2014,07,25,12,44,17.40
2014,07,25,12,45,17.30
2014,07,25,12,46,17.30
2014,07,25,12,47,17.30
2014,07,25,12,48,17.30
2014,07,25,12,49,17.30
2014,07,25,12,50,17.20
2014,07,25,12,51,17.20
2014,07,25,12,52,17.20
2014,07,25,12,53,17.20
2014,07,25,12,54,17.20
2014,07,25,12,55,17.10
2014,07,25,12,56,17.10
2014,07,25,12,57,17.10
2014,07,25,12,58,17.10
2014,07,25,12,59,17.10
2014,07,25,13,00,17.00
2014,07,25,13,01,17.00
2014,07,25,13,02,17.00
2014,07,25,13,03,17.00
2014,07,25,13,04,16.90
2014,07,25,13,05,16.90
2014,07,25,13,06,16.90
2014,07,25,13,07,17.00
2014,07,25,13,08,17.00
2014,07,25,13,09,17.10
2014,07,25,13,10,17.10
2014,07,25,13,11,17.20
2014,07,25,13,12,17.30
2014,07,25,13,13,17.30
2014,07,25,13,14,17.40
2014,07,25,13,15,17.40
2014,07,25,13,16,17.40
2014,07,25,13,17,17.40
2014,07,25,13,18,17.40
2014,07,25,13,19,17.40
2014,07,25,13,20,17.40
2014,07,25,13,21,17.40
2014,07,25,13,22,17.40
2014,07,25,13,23,17.30
2014,07,25,13,24,17.30
2014,07,25,13,25,17.30
2014,07,25,13,26,17.20
2014,07,25,13,27,17.10
2014,07,25,13,28,17.10
2014,07,25,13,29,17.10
2014,07,25,13,30,17.10
2014,07,25,13,31,17.20
2014,07,25,13,32,17.20
2014,07,25,13,33,17.20
2014,07,25,13,34,17.20
2014,07,25,13,35,17.30
2014,07,25,13,36,17.30
2014,07,25,13,37,17.30
2014,07,25,13,38,17.30
2014,07,25,13,39,17.30
2014,07,25,13,40,17.30
2014,07,25,13,41,17.30
2014,07,25,13,42,17.30
2014,07,25,13,43,17.30
2014,07,25,13,44,17.30
2014,07,25,13,45,17.40
2014,07,25,13,46,17.40
2014,07,25,13,47,17.40
2014,07,25,13,48,17.50
2014,07,25,13,49,17.50
2014,07,25,13,50,17.50
2014,07,25,13,51,17.50
2014,07,25,13,52,17.60
2014,07,25,13,53,17.60
2014,07,25,13,54,17.70
2014,07,25,13,55,17.70
2014,07,25,13,56,17.80
2014,07,25,13,57,17.90
2014,07,25,13,58,18.00
2014,07,25,13,59,18.10
2014,07,25,14,00,18.20
2014,07,25,14,01,18.20
2014,07,25,14,02,18.20
2014,07,25,14,03,18.10
2014,07,25,14,04,18.10
2014,07,25,14,05,18.10
2014,07,25,14,06,18.10
2014,07,25,14,07,18.20
2014,07,25,14,08,18.30
2014,07,25,14,09,18.20
2014,07,25,14,10,18.20
2014,07,25,14,11,18.20
2014,07,25,14,12,18.20
2014,07,25,14,13,18.20
2014,07,25,14,14,18.20
2014,07,25,14,15,18.20
2014,07,25,14,16,18.30
2014,07,25,14,17,18.30
2014,07,25,14,18,18.30
2014,07,25,14,19,18.30
2014,07,25,14,20,18.30
2014,07,25,14,21,18.30
2014,07,25,14,22,18.30
2014,07,25,14,23,18.30
2014,07,25,14,24,18.30
2014,07,25,14,25,18.30
2014,07,25,14,26,18.40
2014,07,25,14,27,18.40
2014,07,25,14,28,18.40
2014,07,25,14,29,18.40
2014,07,25,14,30,18.50
2014,07,25,14,31,18.60
2014,07,25,14,32,18.70
2014,07,25,14,33,18.70
2014,07,25,14,34,18.80
2014,07,25,14,35,18.70
2014,07,25,14,36,18.70
2014,07,25,14,37,18.60
2014,07,25,14,38,18.60
2014,07,25,14,39,18.60
2014,07,25,14,40,18.70
2014,07,25,14,41,18.80
2014,07,25,14,42,18.80
2014,07,25,14,43,18.80
2014,07,25,14,44,18.90
2014,07,25,14,45,18.90
2014,07,25,14,46,18.80
2014,07,25,14,47,18.80
2014,07,25,14,48,18.80
2014,07,25,14,49,18.80
2014,07,25,14,50,18.80
2014,07,25,14,51,18.70
2014,07,25,14,52,18.70
2014,07,25,14,53,18.70
2014,07,25,14,54,18.70
2014,07,25,14,55,18.70
2014,07,25,14,56,18.60
2014,07,25,14,57,18.60
2014,07,25,14,58,18.50
2014,07,25,14,59,18.40
2014,07,25,15,00,18.40
2014,07,25,15,01,18.40
2014,07,25,15,02,18.40
2014,07,25,15,03,18.40
2014,07,25,15,04,18.40
2014,07,25,15,05,18.40
2014,07,25,15,06,18.40
2014,07,25,15,07,18.40
2014,07,25,15,08,18.50
2014,07,25,15,09,18.50
2014,07,25,15,10,18.50
2014,07,25,15,11,18.60
2014,07,25,15,12,18.60
2014,07,25,15,13,18.60
2014,07,25,15,14,18.60
2014,07,25,15,15,18.60
2014,07,25,15,16,18.60
2014,07,25,15,17,18.60
2014,07,25,15,18,18.60
2014,07,25,15,19,18.60
2014,07,25,15,20,18.70
2014,07,25,15,21,18.70
2014,07,25,15,22,18.70
2014,07,25,15,23,18.80
2014,07,25,15,24,18.80
2014,07,25,15,25,18.80
2014,07,25,15,26,18.80
2014,07,25,15,27,18.80
2014,07,25,15,28,18.80
2014,07,25,15,29,18.80
2014,07,25,15,30,18.90
2014,07,25,15,31,18.90
2014,07,25,15,32,18.90
2014,07,25,15,33,19.00
2014,07,25,15,34,19.00
2014,07,25,15,35,19.10
2014,07,25,15,36,19.20
2014,07,25,15,37,19.20
2014,07,25,15,38,19.20
2014,07,25,15,39,19.10
2014,07,25,15,40,19.10
2014,07,25,15,41,19.10
2014,07,25,15,42,19.00
2014,07,25,15,43,19.00
2014,07,25,15,44,18.90
2014,07,25,15,45,18.90
2014,07,25,15,46,18.90
2014,07,25,15,47,19.00
2014,07,25,15,48,19.00
2014,07,25,15,49,19.10
2014,07,25,15,50,19.20
2014,07,25,15,51,19.20
2014,07,25,15,52,19.30
2014,07,25,15,53,19.30
2014,07,25,15,54,19.40
2014,07,25,15,55,19.40
2014,07,25,15,56,19.40
2014,07,25,15,57,19.40
2014,07,25,15,58,19.50
2014,07,25,15,59,19.50
2014,07,25,16,00,19.60
2014,07,25,16,01,19.60
2014,07,25,16,02,19.60
2014,07,25,16,03,19.50
2014,07,25,16,04,19.40
2014,07,25,16,05,19.40
2014,07,25,16,06,19.40
2014,07,25,16,07,19.40
2014,07,25,16,08,19.40
2014,07,25,16,09,19.50
2014,07,25,16,10,19.50
2014,07,25,16,11,19.60
2014,07,25,16,12,19.60
2014,07,25,16,13,19.60
2014,07,25,16,14,19.60
2014,07,25,16,15,19.60
2014,07,25,16,16,19.70
2014,07,25,16,17,19.70
2014,07,25,16,18,19.70
2014,07,25,16,19,19.70
2014,07,25,16,20,19.60
2014,07,25,16,21,19.50
2014,07,25,16,22,19.40
2014,07,25,16,23,19.30
2014,07,25,16,24,19.30
2014,07,25,16,25,19.20
2014,07,25,16,26,19.20
2014,07,25,16,27,19.10
2014,07,25,16,28,19.10
2014,07,25,16,29,19.10
2014,07,25,16,30,19.00
2014,07,25,16,31,19.00
2014,07,25,16,32,19.00
2014,07,25,16,33,19.00
2014,07,25,16,34,19.00
2014,07,25,16,35,19.10
2014,07,25,16,36,19.00
2014,07,25,16,37,19.10
2014,07,25,16,38,19.10
2014,07,25,16,39,19.10
2014,07,25,16,40,19.10
2014,07,25,16,41,19.20
2014,07,25,16,42,19.20
2014,07,25,16,43,19.20
2014,07,25,16,44,19.20
2014,07,25,16,45,19.20
2014,07,25,16,46,19.20
2014,07,25,16,47,19.20
2014,07,25,16,48,19.20
2014,07,25,16,49,19.20
2014,07,25,16,50,19.20
2014,07,25,16,51,19.20
2014,07,25,16,52,19.20
2014,07,25,16,53,19.30
2014,07,25,16,54,19.30
2014,07,25,16,55,19.30
2014,07,25,16,56,19.20
2014,07,25,16,57,19.20
2014,07,25,16,58,19.20
2014,07,25,16,59,19.20
2014,07,25,17,00,19.20
2014,07,25,17,01,19.20
2014,07,25,17,02,19.20
2014,07,25,17,03,19.20
2014,07,25,17,04,19.20
2014,07,25,17,05,19.20
2014,07,25,17,06,19.20
2014,07,25,17,07,19.20
2014,07,25,17,08,19.20
2014,07,25,17,09,19.20
2014,07,25,17,10,19.20
2014,07,25,17,11,19.30
2014,07,25,17,12,19.30
2014,07,25,17,13,19.30
2014,07,25,17,14,19.30
2014,07,25,17,15,19.40
2014,07,25,17,16,19.50
2014,07,25,17,17,19.60
2014,07,25,17,18,19.60
2014,07,25,17,19,19.70